Location: Pinhey's Point
(45.4411°N, 75.9539°W)
Time: 09:59:56
(UTC-04:00)

Daily predictions for brighter satellites

Satellite Brightness Start Highest point End
(mag) Time Altitude Azimuth Time Altitude Azimuth Time Altitude Azimuth
COSMO-SKYMED 1 4.2 19:50:02 10° N 19:54:09 41° WNW 19:58:12 10° SW
Lacrosse 5 2.1 19:49:19 10° SW 19:54:24 78° NW 19:59:30 10° NE
Cosmos 1674 3.7 19:52:40 10° NNE 19:55:54 26° ENE 19:59:08 10° SE
Cosmos 1953 2.9 19:53:55 10° SSE 19:57:38 35° E 20:01:21 10° NNE
Cosmos 1408 Rocket 4.4 19:54:37 10° N 19:58:40 33° ENE 20:02:42 10° SE
Cosmos 1766 3.4 19:56:08 10° S 20:00:00 82° W 20:03:55 10° N
Resurs 1-3 3.9 19:57:10 10° SE 20:01:23 48° ENE 20:05:37 10° N
Helios 1B rocket 3.6 20:03:46 10° NE 20:07:00 22° E 20:10:12 10° SE
In-Cosmos 22 4.2 20:04:14 10° NNW 20:09:34 83° W 20:14:50 10° S
Meteor 1-4 Rocket 2.6 20:06:18 10° S 20:09:39 48° E 20:13:01 10° NNE
Cosmos 1939 Rocket 4.5 20:07:09 10° ESE 20:10:07 19° ENE 20:13:05 10° NNE
Timation 2 Rocket 4.0 20:07:48 10° NNW 20:14:08 65° ENE 20:20:10 10° SE
Spot 2 Rocket 3.5 20:09:55 10° SSE 20:15:00 75° ENE 20:20:08 10° N
Lacrosse 5 rocket 1.3 20:11:11 10° NW 20:15:10 61° NE 20:18:25 13° ESE
Cosmos 2098 Rocket 4.5 20:08:14 10° S 20:15:30 63° E 20:22:55 10° NNE
Lacrosse 4 Rocket 4.0 20:12:44 10° W 20:15:52 21° NW 20:19:02 10° N
Cosmos 1447 Rocket 4.5 20:10:25 10° N 20:16:33 68° E 20:22:39 10° SSE
Cosmos 1076 Rocket 3.4 20:14:45 10° N 20:19:01 73° E 20:23:14 10° SSE
Cosmos 1544 3.1 20:18:46 10° S 20:22:25 87° W 20:26:07 10° N
Cosmos 2344 4.0 20:14:58 10° SW 20:22:39 75° NW 20:31:39 10° NE
Okean 3 Rocket 4.0 20:18:51 10° NNW 20:23:14 66° W 20:27:36 10° S
Cosmos 1867 3.5 20:18:43 10° SSW 20:24:07 68° ESE 20:29:34 10° NE
CZ-2D R/B 3.2 20:21:21 10° SSE 20:25:13 74° ENE 20:29:07 10° N
Cosmos 2173 Rocket 4.4 20:19:34 10° SSE 20:25:15 40° E 20:31:03 10° NNE
FENGYUN 3A 4.2 20:20:00 10° S 20:25:20 62° W 20:30:43 10° NNW
USA 267 4.4 20:19:50 10° ENE 20:25:33 34° N 20:31:17 10° NW
Cosmos 1833 Rocket 2.7 20:22:20 10° NNW 20:27:59 86° ENE 20:33:38 10° SSE
Cosmos 1805 3.5 20:24:57 10° SSW 20:28:51 75° W 20:32:46 10° N
Cosmos 482 Debris 2.4 20:28:55 10° NW 20:30:45 61° NNE 20:31:14 38° E
Meteor 1-21 Rocket 4.3 20:24:57 10° N 20:30:49 86° E 20:36:44 10° S
Helios 1A 3.1 20:27:03 10° SSE 20:31:07 56° ENE 20:35:14 10° N
ALOS 3.4 20:26:50 10° S 20:31:20 47° W 20:35:53 10° NNW
Envisat 3.4 20:28:31 10° SE 20:33:16 43° ENE 20:38:03 10° N
Cosmos 1184 Rocket 4.0 20:31:03 10° NNE 20:33:58 26° ENE 20:35:05 22° ESE
Cosmos 2278 Rocket 3.3 20:34:40 10° SW 20:40:08 47° WNW 20:45:38 10° NNE
ATLAS 5 CENTAUR R/B 1.8 20:37:49 10° SSW 20:42:26 61° ESE 20:47:30 10° NE
SeaSat 1 3.5 20:38:46 10° S 20:43:29 46° WSW 20:48:15 10° NW
Geosat 4.1 20:39:00 10° NE 20:43:56 53° ESE 20:48:49 10° S
Cosmos 1125 Rocket 3.7 20:38:52 10° SSW 20:44:03 77° WNW 20:49:19 10° NNE
Cosmos 1048 Rocket 4.4 20:39:34 10° NNW 20:44:38 62° WSW 20:49:40 10° S
Cosmos 1733 3.2 20:41:29 10° S 20:45:17 59° E 20:49:08 10° NNE
Spot 1 4.3 20:40:57 10° SSE 20:45:41 83° ENE 20:50:43 10° NNW
Cosmos 1766 Rocket 3.7 20:41:12 10° N 20:45:42 82° W 20:50:10 10° S
ERS-1 Rocket 3.8 20:43:16 21° ESE 20:45:45 32° ENE 20:50:12 10° N
Cosmos 1470 2.7 20:42:58 10° S 20:46:54 66° E 20:50:51 10° NNE
Cosmos-2242 2.8 20:45:22 10° S 20:49:35 75° E 20:53:52 10° NNE
H-2A R/B 4.0 20:50:23 13° ENE 20:51:22 13° NE 20:53:45 10° NNE
Cosmos 1356 Rocket 3.9 20:49:00 10° N 20:52:53 39° ENE 20:54:14 30° ESE
GP-B 3.1 20:48:29 10° S 20:52:56 89° W 20:57:24 10° N
Cosmos 2016 Rocket 4.1 20:51:24 10° SSE 20:57:21 51° E 21:03:16 10° NNE
CZ-4B DEB 4.5 20:54:49 16° SSE 20:57:34 87° WSW 21:01:11 10° NNW
Cosmos 2297 4.1 20:52:36 10° SW 20:58:18 69° WNW 21:04:04 10° NNE
USA 186 2.4 20:58:05 20° SSW 20:59:13 35° W 21:01:18 10° NNW
Cosmos 1340 Rocket 2.8 20:55:14 10° NNW 20:59:16 85° W 21:02:28 16° S
BREEZE-M DEB (TANK) 3.6 20:56:21 10° WSW 20:59:37 88° SSE 21:10:09 10° ENE
Resurs 01 Rocket 3.3 20:58:16 10° SSW 21:02:18 34° W 21:06:22 10° NNW
CZ-4B DEB 2.6 21:01:12 30° S 21:02:37 83° W 21:05:45 10° NNW
Cosmos 1725 Rocket 4.3 21:02:51 18° SSE 21:07:03 42° E 21:12:49 10° NNE
Cosmos 2221 4.3 21:09:06 17° NE 21:09:06 17° NE 21:10:43 10° NE
Cosmos 2082 Rocket 3.3 21:02:43 10° NW 21:08:05 43° WSW 21:13:22 10° S
OE (NEXTSAT) 4.4 21:04:29 10° W 21:08:05 80° N 21:09:02 47° ENE
ISS -4.0 21:09:16 10° SW 21:12:30 79° SSE 21:12:44 72° E
Meteor 1-29 2.9 21:09:10 10° NNE 21:12:39 84° WNW 21:16:09 10° SSW
ARGOS 4.0 21:13:46 28° E 21:14:43 30° ENE 21:19:20 10° N
Cosmos 2100 Rocket 4.1 21:09:53 10° SSW 21:16:14 79° W 21:22:38 10° N
Cosmos 1743 Rocket 3.6 21:12:24 10° N 21:16:52 80° W 21:19:40 22° S
Cosmos 1500 Rocket 3.4 21:13:32 10° N 21:17:52 77° E 21:19:25 39° SSE
H-2A R/B 4.3 21:20:00 11° NE 21:20:00 11° NE 21:20:42 10° NE
Meteor 1-11 4.1 21:13:42 10° N 21:19:16 66° ENE 21:21:49 33° SSE
SL-08 R/B 4.5 21:13:36 10° S 21:19:53 65° E 21:26:14 10° NNE
SL-14 R/B 3.1 21:18:10 10° N 21:22:03 82° E 21:22:48 57° SSE
Meteor 1-16 Rocket 4.2 21:16:31 10° S 21:22:21 70° E 21:28:16 10° NNE
YAOGAN 6 2.6 21:24:20 63° ENE 21:24:20 63° ENE 21:28:02 10° N
CZ-3B DEB 3.5 21:16:56 10° W 21:24:51 39° NNW 21:28:24 13° NE
Cosmos 2058 3.0 21:21:17 10° N 21:25:21 52° ENE 21:25:21 52° ENE
Cosmos 2251 Rocket 3.5 21:20:56 10° NNW 21:26:18 86° WSW 21:28:42 34° SSE
Cosmos 1271 Rocket 4.0 21:22:29 10° SSW 21:26:19 43° WNW 21:30:12 10° N
Tsikada Rocket 4.0 21:20:19 10° N 21:26:30 63° E 21:29:09 35° SSE
Cosmos 1328 3.9 21:25:16 10° NNW 21:29:14 72° W 21:30:24 43° SSW
USA 215 3.3 21:27:40 10° ENE 21:34:00 51° SE 21:40:19 10° SSW
SPOT 1/Viking Rocket 4.3 21:34:49 34° ENE 21:34:53 34° ENE 21:39:34 10° N
Lacrosse 5 3.7 21:33:42 10° WNW 21:38:03 28° NNW 21:42:24 10° NE
Cosmos 1802 Rocket 4.3 21:33:57 10° SSW 21:40:02 66° W 21:46:13 10° N
Cosmos 2151 2.9 21:37:17 10° N 21:41:34 82° W 21:42:00 70° SSW
Helios 1B rocket 4.1 21:38:38 10° N 21:42:24 35° WNW 21:46:09 10° SW
SPOT 5 3.2 21:42:54 54° E 21:43:27 57° ENE 21:48:39 10° N
Cosmos 1939 Rocket 4.0 21:42:57 27° SSW 21:44:45 42° W 21:48:44 10° NNW
Meteor 2-1 Rocket 4.2 21:43:32 51° SSE 21:44:47 64° E 21:50:22 10° NNE
Terra 3.6 21:52:12 19° NE 21:52:12 19° NE 21:54:33 10° NNE
SL-08 RB Rocket 4.4 21:52:46 42° NE 21:52:46 42° NE 21:56:28 10° N
Cosmos 1703 4.1 21:48:52 10° N 21:51:38 43° N 21:51:38 43° N
Cosmos 1842 Rocket 4.3 21:50:28 18° SSW 21:53:31 51° WNW 21:57:48 10° N
Lacrosse 5 rocket 3.2 21:51:13 10° W 21:53:58 19° SW 21:54:09 19° SW
Cosmos 389 Rocket 3.9 21:55:11 35° NNW 21:55:11 35° NNW 21:57:29 10° N
Cosmos 1816 Rocket 4.4 21:49:25 10° N 21:55:39 86° E 21:57:23 51° SSE
Cosmos 1626 3.5 21:52:42 10° N 21:54:52 32° N 21:54:52 32° N
Cosmos 2369 Rocket 2.5 22:01:47 51° NE 22:01:47 51° NE 22:06:07 10° NNE
MetOp-B 4.0 22:02:47 70° S 22:03:25 85° WSW 22:08:49 10° NNW
USA 267 3.5 22:06:11 46° ENE 22:07:50 58° NNE 22:14:14 10° NW
Gblst 52 Del rocket 4.5 22:03:06 10° SW 22:07:37 52° SSW 22:07:37 52° SSW
USA 245 4.2 22:09:51 74° SSE 22:10:28 88° ENE 22:16:51 10° NNW
Cosmos 2233 Rocket 3.8 22:10:13 70° SSE 22:10:55 81° E 22:17:05 10° N
Cosmos 2227 Rocket 4.5 22:11:47 10° NNE 22:13:39 11° NE 22:14:29 11° NE
NOAA 11 4.4 22:19:29 60° SW 22:20:01 64° WSW 22:25:31 10° NNW
ERS-1 Rocket 4.2 22:23:15 31° SW 22:24:28 35° W 22:29:05 10° NNW
Cosmos 1943 Rocket 4.1 22:28:51 18° NE 22:28:51 18° NE 22:30:17 10° NE
Sich 1 4.4 22:22:41 10° N 22:25:16 35° N 22:25:16 35° N
ATLAS 5 CENTAUR R/B 3.9 22:23:22 10° W 22:27:33 27° NW 22:32:05 10° NNE
H-2A R/B 2.5 22:31:01 58° N 22:31:01 58° N 22:35:16 10° NNW
CZ-3 Stage 3 4.4 22:23:21 10° W 22:36:34 24° SW 22:37:50 23° SSW
Cosmos 2221 4.3 22:45:55 31° NW 22:45:55 31° NW 22:48:49 10° N
CZ-4C R/B 3.7 22:48:37 28° NNE 22:48:37 28° NNE 22:51:27 10° NE
H-2A R/B 4.3 22:57:07 21° NNW 22:57:07 21° NNW 22:58:33 10° NNW
ARGOS 4.2 22:55:16 40° W 22:55:16 40° W 22:59:52 10° NNW
Cosmos 2219 4.3 22:50:27 10° NNW 22:54:14 36° NNE 22:54:14 36° NNE
USA 215 3.6 23:10:42 10° NE 23:17:06 60° NNW 23:23:29 10° WSW
Lacrosse 5 4.0 23:18:26 10° NW 23:22:01 22° N 23:22:01 22° N
Terra 4.0 23:31:05 23° NW 23:31:05 23° NW 23:33:00 10° NNW
Cosmos 2297 Rocket 4.1 23:27:51 10° N 23:30:44 23° NNE 23:30:44 23° NNE
CZ-3B DEB 4.5 23:34:05 10° NW 23:35:01 13° NW 23:35:01 13° NW
Cosmos 2369 Rocket 4.2 23:43:23 21° WNW 23:45:03 24° NW 23:49:32 10° N
USA 267 4.4 23:53:31 34° WNW 23:53:31 34° WNW 23:57:17 10° WNW
